VA2DWE-13 Weather Reports


Display with metric or nautical units.
time (UTC)temp
F
wind
direction
speed
MPH
gust
MPH
rain 1hr
in
rain 24hr
in
rain mn
in
humidity
%
barometer
mb
20260510115958 0 245 1.0 4.0 0.00 0.00 0.00 100
20260510114226 0 236 2.0 4.0 0.00 0.00 0.00 100
20260510112433 0 246 1.0 3.0 0.00 0.00 0.00 100
20260510110833 0 251 1.0 3.0 0.00 0.00 0.00 100
20260510105013 0 240 2.0 4.0 0.00 0.00 0.00 100
20260510103258 0 243 2.0 4.0 0.00 0.00 0.00 100
20260510101658 0 240 2.0 4.0 0.00 0.00 0.00 100
20260510100017 0 240 3.0 4.0 0.00 0.00 0.00 100
20260510094413 0 239 2.0 4.0 0.00 0.00 0.00 100
20260510092538 0 238 3.0 4.0 0.00 0.00 0.00 100
20260510090846 0 245 2.0 4.0 0.00 0.00 0.00 100
20260510084903 0 243 2.0 5.0 0.00 0.00 0.00 100
20260510083053 0 244 1.0 3.0 0.00 0.00 0.00 100
20260510081316 0 244 1.0 4.0 0.00 0.00 0.00 100
20260510075426 0 237 2.0 4.0 0.00 0.00 0.00 100
20260510073653 0 239 2.0 4.0 0.00 0.00 0.00 100
20260510071933 0 239 2.0 4.0 0.00 0.00 0.00 100
20260510070158 0 239 2.0 4.0 0.00 0.00 0.00 100
20260510064433 0 237 2.0 6.0 0.00 0.00 0.00 100
20260510062613 0 239 1.0 3.0 0.00 0.00 0.00 100
20260510060846 0 242 1.0 3.0 0.00 0.00 0.00 100
20260510055058 0 245 1.0 4.0 0.00 0.00 0.00 100
20260510053106 0 244 1.0 3.0 0.00 0.00 0.00 100
20260510051228 0 243 1.0 4.0 0.00 0.00 0.00 100
20260510045528 0 242 1.0 3.0 0.00 0.00 0.00 100
20260510043928 0 270 1.0 3.0 0.00 0.00 0.00 100
20260510042058 0 270 1.0 3.0 0.00 0.00 0.00 100
20260510040303 0 252 1.0 3.0 0.00 0.00 0.00 100
20260510034313 0 303 1.0 4.0 0.00 0.00 0.00 100
20260510032703 0 302 0.0 3.0 0.00 0.00 0.00 100
20260510031043 0 290 1.0 3.0 0.00 0.00 0.00 100
20260510025058 0 270 1.0 4.0 0.00 0.00 0.00 100
20260510023313 0 315 1.0 7.0 0.00 0.00 0.00 100
20260510021436 0 251 1.0 3.0 0.00 0.00 0.00 100
20260510021403 0 251 1.0 3.0 0.00 0.00 0.00 100
20260510015748 0 237 1.0 4.0 0.00 0.00 0.00 100
20260510013953 0 308 0.0 3.0 0.00 0.00 0.00 100
20260510012316 0 270 1.0 3.0 0.00 0.00 0.00 100
20260510010613 0 251 1.0 5.0 0.00 0.00 0.00 100
20260510004923 0 240 1.0 4.0 0.00 0.00 0.00 100
20260510002958 0 243 1.0 4.0 0.00 0.00 0.00 100
20260510001430 0 243 1.0 4.0 0.00 0.00 0.00 100
20260510001343 0 243 1.0 4.0 0.00 0.00 0.00 100
20260509235738 0 240 1.0 5.0 0.00 0.00 0.00 100
20260509234033 0 241 2.0 4.0 0.00 0.00 0.00 100
20260509232423 0 241 1.0 4.0 0.00 0.00 0.00 100
20260509230513 0 233 2.0 5.0 0.00 0.00 0.00 100
20260509224558 0 234 2.0 6.0 0.00 0.00 0.00 100
20260509222738 0 233 3.0 5.0 0.00 0.00 0.00 100
20260509221053 0 236 2.0 8.0 0.00 0.00 0.00 100
20260509215103 0 232 1.0 4.0 0.00 0.00 0.00 100
20260509213143 0 228 2.0 6.0 0.00 0.00 0.00 100
20260509211253 0 238 2.0 4.0 0.00 0.00 0.00 100
20260509205541 0 236 1.0 4.0 0.00 0.00 0.00 100
20260509203637 0 233 3.0 7.0 0.00 0.00 0.00 100
20260509201903 0 232 3.0 11.0 0.00 0.00 0.00 100
20260509195932 0 234 1.0 6.0 0.00 0.00 0.00 100
20260509194355 0 233 1.0 6.0 0.00 0.00 0.00 100
20260509194316 0 233 1.0 6.0 0.00 0.00 0.00 100
20260509192428 0 233 2.0 4.0 0.00 0.00 0.00 100
20260509190833 0 235 2.0 4.0 0.00 0.00 0.00 100
20260509185038 0 241 1.0 4.0 0.00 0.00 0.00 100
20260509183223 0 239 1.0 4.0 0.00 0.00 0.00 100
20260509181354 0 251 1.0 3.0 0.00 0.00 0.00 100
20260509175643 0 225 2.0 5.0 0.00 0.00 0.00 100
20260509173718 0 243 1.0 4.0 0.00 0.00 0.00 100
20260509172018 0 233 2.0 5.0 0.00 0.00 0.00 100
20260509170031 0 234 2.0 4.0 0.00 0.00 0.00 100
20260509164203 0 240 1.0 5.0 0.00 0.00 0.00 100
20260509162423 0 244 1.0 4.0 0.00 0.00 0.00 100
20260509162336 0 244 1.0 4.0 0.00 0.00 0.00 100
20260509160533 0 237 2.0 4.0 0.00 0.00 0.00 100
20260509154706 0 241 1.0 3.0 0.00 0.00 0.00 100
20260509152918 0 241 2.0 4.0 0.00 0.00 0.00 100
20260509151213 0 252 1.0 4.0 0.00 0.00 0.00 100
20260509145406 0 288 1.0 4.0 0.00 0.00 0.00 100
20260509143623 0 270 0.0 3.0 0.00 0.00 0.00 100
20260509141924 0 298 1.0 3.0 0.00 0.00 0.00 100
20260509140248 0 244 1.0 3.0 0.00 0.00 0.00 100
20260509134506 0 248 3.0 6.0 0.00 0.00 0.00 100
20260509132658 0 244 1.0 2.0 0.00 0.00 0.00 100
20260509130818 0 248 1.0 3.0 0.00 0.00 0.00 100
20260509125106 0 244 1.0 3.0 0.00 0.00 0.00 100
20260509123503 0 225 1.0 3.0 0.00 0.00 0.00 100
20260509121558 0 255 1.0 1.0 0.00 0.00 0.00 100